TimeMDT,TemperatureF,Dew PointF,Humidity,Sea Level PressureIn,VisibilityMPH,Wind Direction,Wind SpeedMPH,Gust SpeedMPH,PrecipitationIn,Events,Conditions,WindDirDegrees,DateUTC
12:53 AM,33.1,32.0,96,30.12,6.0,WNW,4.6,-,0.00,,Overcast,290,2013-04-24 06:53:00
1:06 AM,33.8,32.0,93,30.06,8.0,WNW,6.9,-,N/A,,Overcast,300,2013-04-24 07:06:00
1:13 AM,33.8,32.0,93,30.06,9.0,WNW,9.2,-,N/A,,Overcast,290,2013-04-24 07:13:00
1:34 AM,33.8,30.2,87,30.05,3.0,WNW,11.5,-,0.00,Snow,Light Snow,290,2013-04-24 07:34:00
1:53 AM,32.0,30.9,96,30.10,10.0,West,6.9,-,0.00,,Scattered Clouds,270,2013-04-24 07:53:00
2:07 AM,30.2,30.2,100,30.04,8.0,West,5.8,-,N/A,,Partly Cloudy,260,2013-04-24 08:07:00
2:53 AM,30.9,30.0,96,30.10,10.0,WNW,11.5,-,N/A,,Scattered Clouds,290,2013-04-24 08:53:00
3:53 AM,30.2,30.2,100,30.05,9.0,WNW,10.4,-,N/A,,Mostly Cloudy,300,2013-04-24 09:53:00
4:53 AM,30.9,28.0,89,30.12,10.0,WNW,13.8,-,N/A,,Clear,300,2013-04-24 10:53:00
5:53 AM,28.0,25.0,88,30.14,10.0,NW,13.8,-,N/A,,Clear,310,2013-04-24 11:53:00
6:53 AM,28.0,25.0,88,30.16,10.0,NW,10.4,-,N/A,,Clear,310,2013-04-24 12:53:00
7:53 AM,30.9,26.1,82,30.18,10.0,NW,15.0,-,N/A,,Overcast,320,2013-04-24 13:53:00
8:53 AM,34.0,27.0,75,30.20,10.0,NW,18.4,25.3,N/A,,Overcast,320,2013-04-24 14:53:00
9:53 AM,37.0,26.1,65,30.19,10.0,NW,17.3,25.3,N/A,,Overcast,310,2013-04-24 15:53:00
10:53 AM,41.0,25.0,53,30.18,10.0,NW,20.7,26.5,N/A,,Mostly Cloudy,310,2013-04-24 16:53:00
11:53 AM,43.0,21.0,42,30.17,10.0,NW,23.0,28.8,N/A,,Overcast,320,2013-04-24 17:53:00
12:53 PM,44.1,21.0,40,30.14,10.0,NNW,20.7,27.6,N/A,,Overcast,330,2013-04-24 18:53:00
1:53 PM,46.0,21.0,37,30.13,10.0,NW,17.3,24.2,N/A,,Overcast,310,2013-04-24 19:53:00
2:53 PM,48.0,21.9,36,30.11,10.0,NW,11.5,23.0,N/A,,Mostly Cloudy,310,2013-04-24 20:53:00
3:53 PM,50.0,19.0,29,30.08,10.0,West,13.8,21.9,N/A,,Overcast,280,2013-04-24 21:53:00
4:53 PM,50.0,19.9,31,30.04,10.0,NW,3.5,-,N/A,,Mostly Cloudy,310,2013-04-24 22:53:00
5:53 PM,50.0,19.0,29,30.02,10.0,WSW,8.1,-,N/A,,Partly Cloudy,250,2013-04-24 23:53:00
6:53 PM,51.1,19.0,28,29.99,10.0,Calm,Calm,-,N/A,,Clear,0,2013-04-25 00:53:00
7:53 PM,44.1,24.1,45,29.98,10.0,ESE,10.4,-,N/A,,Clear,120,2013-04-25 01:53:00
8:53 PM,41.0,24.1,51,29.98,10.0,ESE,13.8,-,N/A,,Clear,120,2013-04-25 02:53:00
9:53 PM,39.0,25.0,57,29.96,10.0,ESE,12.7,-,N/A,,Clear,110,2013-04-25 03:53:00
10:53 PM,37.0,25.0,62,29.94,10.0,ESE,12.7,-,N/A,,Clear,110,2013-04-25 04:53:00
11:53 PM,35.1,25.0,67,29.93,10.0,ESE,12.7,-,N/A,,Clear,110,2013-04-25 05:53:00